ONEWEB-0536 (54148 NORAD) Tracking and Keplerian Element Data

This shows tracking and keplerian element data for the satellite.

Feedback or suggestion? Click here.




ElementValue
Catalog54148
NameONEWEB-0536
Epoch Orbit1226
Epoch Day13.72307657
Epoch Year2023
RAAN186.8312
Inclination86.9006
Eccentricity0.0010794
Argument of Perigee18.8767
Mean Anonmoly341.2846
Mean Motion14.68812936
Decay Rate7.59E-06
L11 54148U 22138AM 23013.72307657 .00000759 00000+0 12594-3 0 9998
L22 54148 86.9006 186.8312 0010794 18.8767 341.2846 14.68812936 12267



Live tracking and technical data element details for ONEWEB-0536 (NORAD 54148). ONEWEB-0536 can be tracked NOW for your location showing map with azimuth and elevation plus other details from your city location.







IsCatalogInMostPopularTable: catalog: 54148, numindb: 16
Update: records affected: 1



GetName: 54148 ONEWEB-0536

Hit Count: updated at: Fri, 27 Jan 2023 21:20:20 GMT